Regional Weather Roundup
Issued by NWS

Home | Current Version | Previous Version | Text Only | Print | Product List | Glossary Off
Versions: 1 2 3 4 5 6 7 8 9 10 11 12 13 14 15 16 17 18 19 20 21 22 23 24 25 26 27 28 29 30 31 32 33 34 35 36 37 38 39 40 41 42 43 44 45 46 47 48 49 50

000
ASUS43 KMPX 061601
RWRMN
WEATHER ROUNDUP FOR MINNESOTA
NATIONAL WEATHER SERVICE TWIN CITIES/CHANHASSEN MN
1000 AM CST FRI MAR 06 2015


NOTE: "FAIR" INDICATES FEW OR NO CLOUDS BELOW 12,000 FEET WITH NO
SIGNIFICANT WEATHER AND/OR OBSTRUCTIONS TO VISIBILITY. N/A MEANS
CURRENT SKY AND/OR WEATHER CONDITIONS ARE NOT AVAILABLE.

MNZ060>063-068>070-061700-
   Twin Cities Metro

CITY           SKY/WX    TMP DP  RH WIND       PRES   REMARKS
TWIN CITIES    SUNNY     25  11  55 SW10      30.07S WCI  15
ST PAUL        SUNNY     25  11  55 SW7       30.09S WCI  17
CRYSTAL        SUNNY     24  11  57 SW8       30.05S WCI  15
LAKEVILLE      SUNNY     23  12  63 SW8       30.07R WCI  14
EDEN PRAIRIE   SUNNY     25  11  55 SW9       30.05F WCI  15
SOUTH ST PAUL  SUNNY     26  11  53 SW7       30.07F WCI  18
LAKE ELMO      FAIR      21  12  68 S7        30.07F WCI  13
$$
MNZ001>005-007-008-013>017-022>024-027-028-061700-
   Northwest Minnesota

CITY           SKY/WX    TMP DP  RH WIND       PRES   REMARKS
BEMIDJI        SUNNY     20   9  62 W8        30.00R WCI  11
HALLOCK        SUNNY     18  10  73 W6        30.04R WCI   9
ROSEAU         SUNNY     16   9  73 W7        30.00R WCI   6
WARROAD        SUNNY     18   9  68 SW5       29.99R WCI  11
THIEF RVR FALL SUNNY     18  12  79 W9        30.04R WCI   6
CROOKSTON      SUNNY     23  14  68 NW9       30.08R WCI  13
FOSSTON        SUNNY     21  10  63 W6        30.04R WCI  14
DETROIT LAKES  SUNNY     21  14  73 NW9       30.06R WCI  11
MOORHEAD       SUNNY     25  16  68 NW7       30.10R WCI  17
PARK RAPIDS    SUNNY     22  10  60 NW8       30.00R WCI  12
MAHNOMEN       FAIR      18  11  74 NW7       30.05R WCI   9
$$
MNZ006-009>011-018-025>026-061700-
   North Central Minnesota

CITY           SKY/WX    TMP DP  RH WIND       PRES   REMARKS
BAUDETTE       SUNNY     18   8  65 W8        29.96R WCI   8
FLAG ISLAND    SUNNY     18   7  62 NW9       29.96R WCI   6
INTL FALLS     SUNNY     19   5  54 W9        29.94R WCI   8
WASKISH        SUNNY     18  10  73 CALM      29.99R
BIG FORK       SUNNY     25   7  46 NW7       29.95R WCI  17
LONGVILLE      SUNNY     21   9  58 W10       29.99R WCI  10
GRAND RAPIDS   SUNNY     19   9  63 NW12G17   29.96R WCI   7
CRANE LAKE     SUNNY     19   5  53 NW8       29.95R WCI   9
ORR            SUNNY     19   5  53 NW13      29.91R WCI   7
COOK           SUNNY     19   7  58 W12G18    29.93R WCI   7
WALKER         FAIR      20   8  58 NW9       29.99R WCI  10
$$
MNZ012-019>021-037-061700-
   Northeast Minnesota

CITY           SKY/WX    TMP DP  RH WIND       PRES   REMARKS
DULUTH         MOSUNNY   19   8  62 W17       29.93S WCI   4
ELY            SUNNY     19   7  58 W9G22     29.89S WCI   9
HIBBING        SUNNY     20   6  55 NW12G18   29.94R WCI   8
EVELETH        SUNNY     21   9  58 W10G16    29.93S WCI  10
DULUTH HARBOR  SUNNY     19   9  63 SW15      30.00F WCI   5
TWO HARBORS    SUNNY     25  10  54 W12       29.92S WCI  14
SILVER BAY     SUNNY     27   9  46 SW7       29.89F WCI  19
GRAND MARAIS     N/A     24  15  68 SW15      29.91F WCI  11
G MARAIS ARPRT SUNNY     19   5  53 W9G16     29.82S WCI   9
$$
MNZ029>031-032-039>041-046>048-054>057-064-061700-
   West Central Minnesota

CITY           SKY/WX    TMP DP  RH WIND       PRES   REMARKS
FERGUS FALLS   SUNNY     19  10  68 N9        30.12R WCI   9
WHEATON        SUNNY     23  14  68 NW12      30.12R WCI  12
MORRIS         SUNNY     25  16  68 NW16      30.07R WCI  12
ALEXANDRIA     SUNNY     21  12  68 NW8       30.04R WCI  11
ELBOW LAKE     FAIR      19  13  74 NW12      30.07R WCI   7
WADENA         SUNNY     19  10  68 W12       30.03R WCI   7
GLENWOOD       SUNNY     21  14  73 W12       30.05R WCI   9
APPLETON       SUNNY     28  16  59 NW16      30.10R WCI  17
BENSON         SUNNY     27  16  63 N12       30.08R WCI  16
ORTONVILLE     SUNNY     27  14  59 NW10      30.10R WCI  17
MADISON        SUNNY     28  18  64 NW14      30.10R WCI  17
WILLMAR        FAIR      27  16  63 NW17      30.07R WCI  14
$$
MNZ033>034-036-042>043-049>051-058-059-061700-
   Central Minnesota

CITY           SKY/WX    TMP DP  RH WIND       PRES   REMARKS
ST CLOUD       SUNNY     24  12  60 NW12      30.03S WCI  13
SAUK CENTRE    FAIR      23  14  67 NW14      30.04R WCI  11
PAYNESVILLE    SUNNY     24  14  68 SW10      30.05R WCI  13
AITKIN         SUNNY     25  10  54 NW7       29.98S WCI  17
PINE RIVER     SUNNY     23  10  58 NW6       30.03R WCI  16
BRAINERD       SUNNY     21  10  62 NW6       30.01R WCI  13
STAPLES        SUNNY     19  10  68 W9        30.02R WCI   9
LONG PRAIRIE   FAIR      23  12  63 W7        30.03R WCI  15
LITTLE FALLS   SUNNY     25  12  58 W7        30.03S WCI  17
LITCHFIELD     SUNNY     27  16  63 W9        30.04S WCI  17
BUFFALO        SUNNY     24  12  61 W7        30.05F WCI  16
MAPLE LAKE     SUNNY     26  15  63 W6        30.05S WCI  19
$$
MNZ037-044-045-052-053-061700-
   East Central Minnesota

CITY           SKY/WX    TMP DP  RH WIND       PRES   REMARKS
PRINCETON      SUNNY     25  12  58 W8        30.03S WCI  16
MORA           SUNNY     21  10  63 W5        30.04S WCI  15
CAMBRIDGE      SUNNY     23  10  58 W6        30.02F WCI  16
RUSH CITY      SUNNY     22   9  58 SW5       30.04F WCI  16
MOOSE LAKE     SUNNY     23   9  54 W8        29.98F WCI  14
HINCKLEY       FAIR      21  10  63 SW5       30.02S WCI  15
CLOQUET        SUNNY     19   7  58 W12G17    29.96R WCI   7
MCGREGOR       SUNNY     21  12  68 W8        29.99S WCI  12
$$
MNZ071>073-080-081-089-090-097-098-061700-
   Southwest Minnesota

CITY           SKY/WX    TMP DP  RH WIND       PRES   REMARKS
MONTEVIDEO     SUNNY     30  18  59 N12       30.10R WCI  21
GRANITE FALLS  SUNNY     30  19  62 NW17      30.10R WCI  18
CANBY          SUNNY     31  18  57 NW14      30.11R WCI  21
MARSHALL       SUNNY     34  18  51 NW16      30.10R WCI  23
REDWOOD FALLS  SUNNY     32  18  56 NW15      30.07S WCI  22
OLIVIA         SUNNY     30  19  64 NW16      30.06R WCI  19
PIPESTONE      SUNNY     28  18  64 NW9       30.07S WCI  20
WINDOM         SUNNY     34  19  55 SW9       30.07S WCI  26
WORTHINGTON    SUNNY     34  19  55 W9        30.09F WCI  26
JACKSON        SUNNY     32  18  55 W13       30.08S WCI  22
TRACY          SUNNY     37  20  52 NW14      30.08R
SLAYTON        SUNNY     33  17  52 W15       30.07R WCI  23
$$
MNZ065>067-074>077-082>085-091>093-061700-
   South Central Minnesota

CITY           SKY/WX    TMP DP  RH WIND       PRES   REMARKS
MANKATO        SUNNY     27  16  63 SW10      30.08F WCI  17
NEW ULM        SUNNY     30  19  64 W10       30.07S WCI  21
ST JAMES       SUNNY     37  19  48 W8        30.08S
FAIRMONT       SUNNY     30  18  59 W10       30.07S WCI  21
GLENCOE        SUNNY     29  19  68 W6        30.05F WCI  22
FARIBAULT      SUNNY     25  14  63 S8        30.08S WCI  16
OWATONNA       SUNNY     25  16  68 S14       30.08S WCI  13
WASECA         SUNNY     25  14  63 SW13      30.10F WCI  13
ALBERT LEA     SUNNY     25  14  63 SW8       30.10R WCI  16
$$
MNZ078>079-086>088-094>096-061700-
   Southeast Minnesota

CITY           SKY/WX    TMP DP  RH WIND       PRES   REMARKS
ROCHESTER      SUNNY     19  11  70 S16       30.09F WCI   4
RED WING       CLOUDY    25   9  50 W7        30.10S WCI  17
STANTON        MOSUNNY   24  13  62 SW10      30.07S WCI  13
DODGE CENTER   SUNNY     19  12  73 SW18      30.07S WCI   4
WINONA         SUNNY     23  10  58 SW9       30.16F WCI  13
AUSTIN         SUNNY     18  10  73 S10       30.11S WCI   6
PRESTON        SUNNY     18   9  69 S20       30.11F WCI   1
$$
ABBREVIATIONS USED IN REMARKS
   TC - TEMPERATURES IN CELSIUS
  WCI - WIND CHILL INDEX
   HX - HEAT INDEX
  VSB - VISIBILITY
$$



USA.gov is the U.S. government's official web portal to all federal, state and local government web resources and services.